This demonstration page uses our WeatherBlox Daily Observations layout. Learn more.

Left ArrowRight Arrow

41.55636, -103.73856

Hourly Observations for January 12, 2021

Temp ( °F °C ) Dew Point ( °F °C ) Humidity (%) Winds ( mph kmh ) Pressure ( in mb ) Visibility ( mi km ) Precip ( " mm )
12:58 am 00:58 Clear 28 -2.3 10 -12.4 46 46 WSW 8 13 30.33 1027 10 16.0934 0 0
1:58 am 01:58 Clear 28 -2.1 11 -11.9 47 47 W 8 13 30.33 1027 10 16.0934 0 0
2:58 am 02:58 Clear 29 -1.8 11 -11.6 48 48 W 12 19 30.2 1023 10 16.0934 0 0
3:58 am 03:58 Clear 29 -1.5 11 -11.4 47 47 W 8 13 30.21 1023 10 16.0934 0 0
4:58 am 04:58 Clear 24 -4.5 12 -11.1 60 60 WSW 8 13 30.26 1025 10 16.0934 0 0
5:58 am 05:58 Clear 25 -4.1 13 -10.7 60 60 WSW 6 9 30.29 1026 10 16.0934 0 0
6:58 am 06:58 Clear 24 -4.3 13 -10.4 63 63 WSW 8 13 30.28 1026 10 16.0934 0 0
7:58 am 07:58 Sunny 27 -2.9 15 -9.7 60 60 W 10 17 30.27 1025 10 16.0934 0 0
8:58 am 08:58 Sunny 37 2.9 19 -7.5 47 47 W 8 13 30.26 1025 10 16.0934 0 0
9:58 am 09:58 Sunny 43 6.1 15 -9.2 33 33 W 16 26 30.24 1024 10 16.0934 0 0
10:58 am 10:58 Sunny 48 9 15 -9.6 26 26 WNW 23 37 30.18 1022 10 16.0934 0 0
11:58 am 11:58 Sunny 52 11 13 -10.4 21 21 WNW 20 31 30.13 1020 10 16.0934 0 0
12:58 pm 12:58 Sunny 52 10.9 13 -10.6 21 21 NW 22 35 30.11 1020 10 16.0934 0 0
1:58 pm 13:58 Sunny 50 9.8 14 -9.9 24 24 NW 10 17 30.1 1019 10 16.0934 0 0
2:58 pm 14:58 Sunny 50 10 13 -10.3 23 23 W 10 17 30.08 1019 10 16.0934 0 0
4:58 pm 16:58 Mostly Clear 44 6.6 13 -10.8 28 28 WSW 9 15 30.06 1018 10 16.0934 0 0
5:58 pm 17:58 Clear 36 2.4 14 -9.8 40 40 SW 15 24 30.09 1019 10 16.0934 0 0
6:58 pm 18:58 Clear 35 1.6 14 -10.2 42 42 W 12 19 30.1 1019 10 16.0934 0 0
7:58 pm 19:58 Clear 40 4.5 13 -10.8 32 32 W 15 24 30.07 1018 10 16.0934 0 0
8:58 pm 20:58 Clear 37 2.5 13 -10.5 38 38 W 14 22 30.04 1017 10 16.0934 0 0
9:58 pm 21:58 Mostly Clear 35 1.8 13 -10.3 41 41 WSW 14 22 30.01 1016 10 16.0934 0 0
10:58 pm 22:58 Mostly Clear 35 1.4 13 -10.4 41 41 W 16 26 29.99 1016 10 16.0934 0 0
11:58 pm 23:58 Clear 45 7.3 12 -11.1 26 26 W 13 20 29.95 1014 10 16.0934 0 0

Powered by AerisWeather